Time,TemperatureF,DewpointF,PressureIn,WindDirection,WindDirectionDegrees,WindSpeedMPH,WindSpeedGustMPH,Humidity,HourlyPrecipIn,Conditions,Clouds,dailyrainin,SoftwareType,DateUTC
2013-09-26 00:03:00,48.8,47.0,29.88,SSW,209,0.0,-999.0,92,-99.99,,,0.00,weatherlink.com 1.10,2013-09-26 05:03:00,
2013-09-26 00:18:00,48.8,47.0,29.89,SSW,209,0.0,-999.0,92,-99.99,,,0.00,weatherlink.com 1.10,2013-09-26 05:18:00,
2013-09-26 00:33:00,48.5,46.0,29.89,SSW,209,0.0,-999.0,92,-99.99,,,0.00,weatherlink.com 1.10,2013-09-26 05:33:00,
2013-09-26 00:48:00,48.3,46.0,29.89,SSW,209,0.0,-999.0,92,-99.99,,,0.00,weatherlink.com 1.10,2013-09-26 05:48:00,
2013-09-26 01:03:00,48.0,46.0,29.90,SSW,209,0.0,-999.0,92,-99.99,,,0.00,weatherlink.com 1.10,2013-09-26 06:03:00,
2013-09-26 01:17:00,47.7,46.0,29.90,SSW,209,0.0,-999.0,92,-99.99,,,0.00,weatherlink.com 1.10,2013-09-26 06:17:00,
2013-09-26 01:32:00,47.4,45.0,29.90,SSW,209,0.0,-999.0,92,-99.99,,,0.00,weatherlink.com 1.10,2013-09-26 06:32:00,
2013-09-26 01:47:00,47.1,45.0,29.90,SSW,209,0.0,-999.0,92,-99.99,,,0.00,weatherlink.com 1.10,2013-09-26 06:47:00,
2013-09-26 02:02:00,46.8,45.0,29.90,SSW,209,0.0,-999.0,92,-99.99,,,0.00,weatherlink.com 1.10,2013-09-26 07:02:00,
2013-09-26 02:17:00,46.7,45.0,29.90,SSW,209,0.0,-999.0,92,-99.99,,,0.00,weatherlink.com 1.10,2013-09-26 07:17:00,
2013-09-26 02:32:00,46.4,44.0,29.90,SSW,209,0.0,-999.0,92,-99.99,,,0.00,weatherlink.com 1.10,2013-09-26 07:32:00,
2013-09-26 02:47:00,46.2,44.0,29.90,SSW,209,0.0,-999.0,92,-99.99,,,0.00,weatherlink.com 1.10,2013-09-26 07:47:00,
2013-09-26 03:03:00,46.2,44.0,29.90,SSW,209,0.0,-999.0,93,-99.99,,,0.00,weatherlink.com 1.10,2013-09-26 08:03:00,
2013-09-26 03:18:00,46.4,45.0,29.90,SSW,209,0.0,-999.0,94,-99.99,,,0.00,weatherlink.com 1.10,2013-09-26 08:18:00,
2013-09-26 03:33:00,46.7,45.0,29.90,SSW,209,0.0,-999.0,94,-99.99,,,0.00,weatherlink.com 1.10,2013-09-26 08:33:00,
2013-09-26 03:48:00,46.8,46.0,29.90,SSW,209,0.0,-999.0,95,-99.99,,,0.00,weatherlink.com 1.10,2013-09-26 08:48:00,
2013-09-26 04:03:00,47.3,46.0,29.90,SSW,209,0.0,-999.0,96,-99.99,,,0.00,weatherlink.com 1.10,2013-09-26 09:03:00,
2013-09-26 04:18:00,47.7,47.0,29.90,SSW,209,0.0,-999.0,96,-99.99,,,0.00,weatherlink.com 1.10,2013-09-26 09:18:00,
2013-09-26 04:33:00,48.2,47.0,29.90,SSW,209,0.0,-999.0,96,-99.99,,,0.00,weatherlink.com 1.10,2013-09-26 09:33:00,
2013-09-26 04:48:00,48.3,47.0,29.90,SSW,209,0.0,-999.0,96,-99.99,,,0.00,weatherlink.com 1.10,2013-09-26 09:48:00,
2013-09-26 05:03:00,48.3,47.0,29.90,SSW,209,0.0,-999.0,96,-99.99,,,0.00,weatherlink.com 1.10,2013-09-26 10:03:00,
2013-09-26 05:18:00,48.2,47.0,29.91,SSW,209,0.0,-999.0,96,-99.99,,,0.00,weatherlink.com 1.10,2013-09-26 10:18:00,
2013-09-26 05:33:00,47.9,47.0,29.91,SSW,209,0.0,-999.0,96,-99.99,,,0.00,weatherlink.com 1.10,2013-09-26 10:33:00,
2013-09-26 05:48:00,47.6,47.0,29.91,SSW,209,0.0,-999.0,96,-99.99,,,0.00,weatherlink.com 1.10,2013-09-26 10:48:00,
2013-09-26 06:03:00,47.4,46.0,29.91,SSW,209,0.0,-999.0,96,-99.99,,,0.00,weatherlink.com 1.10,2013-09-26 11:03:00,
2013-09-26 06:18:00,47.3,46.0,29.92,SSW,209,0.0,-999.0,96,-99.99,,,0.00,weatherlink.com 1.10,2013-09-26 11:18:00,
2013-09-26 06:33:00,47.3,46.0,29.92,SSW,209,0.0,-999.0,96,-99.99,,,0.00,weatherlink.com 1.10,2013-09-26 11:33:00,
2013-09-26 06:48:00,47.3,46.0,29.93,SSW,209,0.0,-999.0,96,-99.99,,,0.00,weatherlink.com 1.10,2013-09-26 11:48:00,
2013-09-26 07:03:00,47.7,47.0,29.93,SSW,209,0.0,-999.0,97,-99.99,,,0.00,weatherlink.com 1.10,2013-09-26 12:03:00,
2013-09-26 07:18:00,48.3,48.0,29.93,SSW,209,0.0,-999.0,97,-99.99,,,0.00,weatherlink.com 1.10,2013-09-26 12:18:00,
2013-09-26 07:33:00,48.6,48.0,29.93,SSW,209,0.0,-999.0,97,-99.99,,,0.00,weatherlink.com 1.10,2013-09-26 12:33:00,
2013-09-26 07:48:00,48.9,48.0,29.93,SSW,209,0.0,-999.0,97,-99.99,,,0.00,weatherlink.com 1.10,2013-09-26 12:48:00,
2013-09-26 08:03:00,49.4,49.0,29.93,WSW,246,0.0,-999.0,98,-99.99,,,0.00,weatherlink.com 1.10,2013-09-26 13:03:00,
2013-09-26 08:18:00,49.9,49.0,29.94,WSW,246,0.0,-999.0,98,-99.99,,,0.00,weatherlink.com 1.10,2013-09-26 13:18:00,
2013-09-26 08:33:00,50.5,50.0,29.94,WSW,246,0.0,-999.0,98,-99.99,,,0.00,weatherlink.com 1.10,2013-09-26 13:33:00,
2013-09-26 08:48:00,51.1,51.0,29.95,WSW,246,0.0,-999.0,99,-99.99,,,0.00,weatherlink.com 1.10,2013-09-26 13:48:00,
2013-09-26 09:03:00,51.7,52.0,29.95,SE,140,1.0,-999.0,99,-99.99,,,0.00,weatherlink.com 1.10,2013-09-26 14:03:00,
2013-09-26 09:19:00,52.5,52.0,29.95,WSW,240,0.0,-999.0,99,-99.99,,,0.00,weatherlink.com 1.10,2013-09-26 14:19:00,
2013-09-26 09:34:00,53.2,53.0,29.94,ENE,69,0.0,-999.0,99,-99.99,,,0.00,weatherlink.com 1.10,2013-09-26 14:34:00,
2013-09-26 09:49:00,53.9,54.0,29.94,WNW,284,0.0,-999.0,99,-99.99,,,0.00,weatherlink.com 1.10,2013-09-26 14:49:00,
2013-09-26 10:04:00,54.8,54.0,29.95,SE,124,1.0,-999.0,98,-99.99,,,0.00,weatherlink.com 1.10,2013-09-26 15:04:00,
2013-09-26 10:19:00,56.2,55.0,29.95,SSE,150,0.0,-999.0,96,-99.99,,,0.00,weatherlink.com 1.10,2013-09-26 15:19:00,
2013-09-26 10:34:00,58.7,55.0,29.94,SSE,155,2.0,-999.0,88,-99.99,,,0.00,weatherlink.com 1.10,2013-09-26 15:34:00,
2013-09-26 10:49:00,61.8,54.0,29.93,SE,128,0.0,-999.0,76,-99.99,,,0.00,weatherlink.com 1.10,2013-09-26 15:49:00,
2013-09-26 11:04:00,63.9,54.0,29.93,WSW,242,0.0,-999.0,70,-99.99,,,0.00,weatherlink.com 1.10,2013-09-26 16:04:00,
2013-09-26 11:19:00,65.3,54.0,29.93,ESE,106,0.0,-999.0,67,-99.99,,,0.00,weatherlink.com 1.10,2013-09-26 16:19:00,
2013-09-26 11:34:00,66.8,54.0,29.93,WSW,252,2.0,-999.0,64,-99.99,,,0.00,weatherlink.com 1.10,2013-09-26 16:34:00,
2013-09-26 11:49:00,68.1,54.0,29.92,SE,133,0.0,-999.0,61,-99.99,,,0.00,weatherlink.com 1.10,2013-09-26 16:49:00,
2013-09-26 12:04:00,69.8,55.0,29.92,SE,142,0.0,-999.0,59,-99.99,,,0.00,weatherlink.com 1.10,2013-09-26 17:04:00,
2013-09-26 12:20:00,71.1,55.0,29.92,ESE,113,1.0,-999.0,57,-99.99,,,0.00,weatherlink.com 1.10,2013-09-26 17:20:00,
2013-09-26 12:35:00,72.0,55.0,29.91,SSE,155,3.0,-999.0,56,-99.99,,,0.00,weatherlink.com 1.10,2013-09-26 17:35:00,
2013-09-26 12:50:00,72.7,55.0,29.90,East,86,0.0,-999.0,54,-99.99,,,0.00,weatherlink.com 1.10,2013-09-26 17:50:00,
2013-09-26 13:05:00,73.5,56.0,29.90,West,275,0.0,-999.0,54,-99.99,,,0.00,weatherlink.com 1.10,2013-09-26 18:05:00,
2013-09-26 13:20:00,74.4,56.0,29.90,SW,235,2.0,-999.0,53,-99.99,,,0.00,weatherlink.com 1.10,2013-09-26 18:20:00,
2013-09-26 13:35:00,74.4,56.0,29.89,SW,222,6.0,-999.0,52,-99.99,,,0.00,weatherlink.com 1.10,2013-09-26 18:35:00,
2013-09-26 13:50:00,75.3,57.0,29.88,ESE,113,2.0,-999.0,54,-99.99,,,0.00,weatherlink.com 1.10,2013-09-26 18:50:00,
2013-09-26 14:05:00,76.0,56.0,29.88,SSE,153,0.0,-999.0,50,-99.99,,,0.00,weatherlink.com 1.10,2013-09-26 19:05:00,
2013-09-26 14:20:00,76.5,58.0,29.88,SW,222,1.0,-999.0,53,-99.99,,,0.00,weatherlink.com 1.10,2013-09-26 19:20:00,
2013-09-26 14:35:00,77.2,57.0,29.88,SSW,211,0.0,-999.0,50,-99.99,,,0.00,weatherlink.com 1.10,2013-09-26 19:35:00,
2013-09-26 14:51:00,77.2,57.0,29.87,ESE,120,2.0,-999.0,50,-99.99,,,0.00,weatherlink.com 1.10,2013-09-26 19:51:00,
2013-09-26 15:07:00,77.9,57.0,29.87,SSE,163,1.0,-999.0,49,-99.99,,,0.00,weatherlink.com 1.10,2013-09-26 20:07:00,
2013-09-26 15:20:00,78.1,58.0,29.86,SW,234,1.0,-999.0,50,-99.99,,,0.00,weatherlink.com 1.10,2013-09-26 20:20:00,
2013-09-26 15:35:00,78.3,58.0,29.86,ESE,123,1.0,-999.0,49,-99.99,,,0.00,weatherlink.com 1.10,2013-09-26 20:35:00,
2013-09-26 15:50:00,78.6,58.0,29.86,East,82,1.0,-999.0,49,-99.99,,,0.00,weatherlink.com 1.10,2013-09-26 20:50:00,
2013-09-26 16:05:00,78.8,57.0,29.86,South,170,1.0,-999.0,47,-99.99,,,0.00,weatherlink.com 1.10,2013-09-26 21:05:00,
2013-09-26 16:20:00,79.2,58.0,29.86,WSW,254,2.0,-999.0,48,-99.99,,,0.00,weatherlink.com 1.10,2013-09-26 21:20:00,
2013-09-26 16:35:00,79.2,58.0,29.86,SSW,194,0.0,-999.0,49,-99.99,,,0.00,weatherlink.com 1.10,2013-09-26 21:35:00,
2013-09-26 16:50:00,78.6,58.0,29.86,SSE,155,0.0,-999.0,49,-99.99,,,0.00,weatherlink.com 1.10,2013-09-26 21:50:00,
2013-09-26 17:06:00,77.6,57.0,29.86,SW,236,1.0,-999.0,50,-99.99,,,0.00,weatherlink.com 1.10,2013-09-26 22:06:00,
2013-09-26 17:21:00,76.5,58.0,29.86,SSE,156,0.0,-999.0,53,-99.99,,,0.00,weatherlink.com 1.10,2013-09-26 22:21:00,
2013-09-26 17:36:00,75.8,58.0,29.86,North,5,1.0,-999.0,54,-99.99,,,0.00,weatherlink.com 1.10,2013-09-26 22:36:00,
2013-09-26 17:51:00,74.7,57.0,29.86,WNW,296,0.0,-999.0,55,-99.99,,,0.00,weatherlink.com 1.10,2013-09-26 22:51:00,
2013-09-26 18:06:00,74.0,57.0,29.86,SSW,200,0.0,-999.0,56,-99.99,,,0.00,weatherlink.com 1.10,2013-09-26 23:06:00,
2013-09-26 18:21:00,73.5,57.0,29.86,WNW,283,0.0,-999.0,57,-99.99,,,0.00,weatherlink.com 1.10,2013-09-26 23:21:00,
2013-09-26 18:36:00,72.5,57.0,29.86,ENE,58,0.0,-999.0,59,-99.99,,,0.00,weatherlink.com 1.10,2013-09-26 23:36:00,
2013-09-26 18:51:00,71.5,57.0,29.87,NW,318,0.0,-999.0,61,-99.99,,,0.00,weatherlink.com 1.10,2013-09-26 23:51:00,
2013-09-26 19:06:00,70.3,57.0,29.87,NW,318,0.0,-999.0,63,-99.99,,,0.00,weatherlink.com 1.10,2013-09-27 00:06:00,
2013-09-26 19:21:00,69.1,57.0,29.87,NW,317,0.0,-999.0,65,-99.99,,,0.00,weatherlink.com 1.10,2013-09-27 00:21:00,
2013-09-26 19:36:00,67.9,56.0,29.87,NW,318,0.0,-999.0,67,-99.99,,,0.00,weatherlink.com 1.10,2013-09-27 00:36:00,
2013-09-26 19:51:00,66.9,56.0,29.87,NW,318,0.0,-999.0,67,-99.99,,,0.00,weatherlink.com 1.10,2013-09-27 00:51:00,
2013-09-26 20:06:00,65.8,55.0,29.88,NW,318,0.0,-999.0,69,-99.99,,,0.00,weatherlink.com 1.10,2013-09-27 01:06:00,
2013-09-26 20:21:00,65.0,55.0,29.88,NW,318,0.0,-999.0,71,-99.99,,,0.00,weatherlink.com 1.10,2013-09-27 01:21:00,
2013-09-26 20:36:00,64.3,55.0,29.88,NW,318,0.0,-999.0,73,-99.99,,,0.00,weatherlink.com 1.10,2013-09-27 01:36:00,
2013-09-26 20:51:00,63.7,55.0,29.87,NW,318,0.0,-999.0,74,-99.99,,,0.00,weatherlink.com 1.10,2013-09-27 01:51:00,
2013-09-26 21:07:00,63.2,55.0,29.87,NW,318,1.0,-999.0,75,-99.99,,,0.00,weatherlink.com 1.10,2013-09-27 02:07:00,
2013-09-26 21:21:00,62.9,55.0,29.87,East,84,0.0,-999.0,75,-99.99,,,0.00,weatherlink.com 1.10,2013-09-27 02:21:00,
2013-09-26 21:36:00,62.7,55.0,29.87,East,84,0.0,-999.0,75,-99.99,,,0.00,weatherlink.com 1.10,2013-09-27 02:36:00,
2013-09-26 21:51:00,62.6,54.0,29.88,East,84,1.0,-999.0,74,-99.99,,,0.00,weatherlink.com 1.10,2013-09-27 02:51:00,
2013-09-26 22:06:00,62.4,54.0,29.89,East,84,0.0,-999.0,74,-99.99,,,0.00,weatherlink.com 1.10,2013-09-27 03:06:00,
2013-09-26 22:21:00,62.4,54.0,29.88,East,84,0.0,-999.0,73,-99.99,,,0.00,weatherlink.com 1.10,2013-09-27 03:21:00,
2013-09-26 22:36:00,62.4,54.0,29.88,East,84,0.0,-999.0,73,-99.99,,,0.00,weatherlink.com 1.10,2013-09-27 03:36:00,
2013-09-26 22:51:00,62.4,54.0,29.88,East,84,0.0,-999.0,73,-99.99,,,0.00,weatherlink.com 1.10,2013-09-27 03:51:00,
2013-09-26 23:07:00,62.4,54.0,29.88,East,84,0.0,-999.0,73,-99.99,,,0.00,weatherlink.com 1.10,2013-09-27 04:07:00,
2013-09-26 23:21:00,62.1,53.0,29.88,East,84,0.0,-999.0,73,-99.99,,,0.00,weatherlink.com 1.10,2013-09-27 04:21:00,
2013-09-26 23:36:00,61.8,54.0,29.89,East,84,1.0,-999.0,75,-99.99,,,0.00,weatherlink.com 1.10,2013-09-27 04:36:00,
2013-09-26 23:51:00,61.6,53.0,29.89,NE,56,0.0,-999.0,74,-99.99,,,0.00,weatherlink.com 1.10,2013-09-27 04:51:00,